[[{"header":{"parameterUnit":"m.s-1","parameterCategory":1,"la1":30.2991,"la2":30.254,"lo1":-89.0895,"lo2":-89.0444,"dy":0.0017,"dx":0.0017,"nx":28,"ny":28,"refTime":"2025-09-15T09:00:00:Z","depth":0,"parameterNumber":2,"parameterNumberName":"U-component_of_WINDS"},"data":[0,0,0,0,0,0,0,0,0,0,0,0,0,0,0,0,0,0,0,0,0,0,0,0,0,0,0,0,0,0,0,0,0,0,0,0,0,0,0,0,0,0,0,0,0,0,0,0,0,0,0,0,0,0,0,0,0,0,-0.6264,-0.6265,0,-0.6352,-0.6353,-0.6354,-0.6386,-0.6386,-0.6386,-0.6385,-0.6478,-0.6481,-0.6483,0,0,0,0,0,0,0,0,0,0,0,0,0,-0.6129,-0.6131,-0.6264,-0.6265,-0.6266,-0.6351,-0.6353,-0.6354,-0.6386,-0.6386,-0.6386,-0.6385,-0.6477,-0.648,-0.6484,0,0,0,0,0,0,0,0,0,0,0,0,0,-0.6199,-0.6132,-0.6264,-0.6293,-0.6296,-0.6351,-0.6353,-0.6354,-0.6386,-0.6386,-0.6386,-0.6385,-0.6476,-0.648,-0.6484,-0.6518,0,0,-0.6497,-0.6498,0,0,0,0,0,0,0,0,-0.6195,-0.6204,-0.6287,-0.6291,-0.6295,-0.6358,-0.6339,-0.6409,-0.6387,-0.6352,-0.6385,-0.6385,-0.6438,-0.6446,-0.6463,-0.6522,-0.6526,-0.6497,-0.6499,-0.6501,-0.6502,0,0,0,0,0,0,0,-0.619,-0.62,-0.6299,-0.6289,-0.6293,-0.6302,-0.6312,-0.6352,-0.6397,-0.6355,-0.6358,-0.6368,-0.644,-0.6459,-0.6465,-0.6527,-0.6497,-0.65,-0.6503,-0.6505,-0.662,-0.6621,0,0,0,0,0,0,-0.618,-0.6196,-0.6296,-0.6302,-0.6243,-0.6305,-0.6316,-0.6338,-0.6396,-0.6405,-0.6368,-0.6369,-0.6452,-0.6461,-0.6469,-0.6513,-0.6501,-0.6505,-0.6507,-0.6619,-0.662,-0.6621,0,0,0,0,0,0,-0.6177,-0.6189,-0.6293,-0.625,-0.6264,-0.6308,-0.6333,-0.634,-0.6358,-0.6406,-0.6414,-0.6378,-0.6452,-0.6463,-0.6505,-0.6517,-0.6507,-0.6511,-0.6619,-0.662,-0.662,-0.6601,0,0,0,0,0,0,-0.6173,-0.6187,-0.62,-0.625,-0.6266,-0.6327,-0.6333,-0.6342,-0.6365,-0.6367,-0.6418,-0.6426,-0.6453,-0.6499,-0.651,-0.6522,-0.6514,-0.6618,-0.6619,-0.662,-0.6601,-0.6602,-0.6602,0,0,0,0,0,-0.6168,-0.6191,-0.62,-0.6212,-0.6282,-0.6327,-0.6337,-0.6366,-0.6366,-0.6379,-0.641,-0.6425,-0.6514,-0.6503,-0.6515,-0.6529,-0.6617,-0.6619,-0.662,-0.6601,-0.6602,-0.6602,0,0,0,0,0,0,-0.6143,-0.6198,-0.6209,-0.6249,-0.6283,-0.6333,-0.6351,-0.6365,-0.6401,-0.6401,-0.6437,-0.6448,-0.6488,-0.6513,-0.65,-0.6566,-0.6567,-0.657,-0.6548,-0.6549,-0.6549,-0.6543,-0.6517,0,0,0,0,0,-0.6142,-0.6173,-0.622,-0.6251,-0.6267,-0.6306,-0.6327,-0.6346,-0.6383,-0.6398,-0.6432,-0.6468,-0.6505,-0.6528,-0.6564,-0.6605,-0.6617,-0.662,-0.6621,-0.6621,-0.6624,-0.6649,-0.6651,-0.6625,-0.6625,-0.6625,0,0,-0.614,-0.6174,-0.6192,-0.6247,-0.6275,-0.6308,-0.6318,-0.6352,-0.6377,-0.6404,-0.6446,-0.6472,-0.6515,-0.6557,-0.6577,-0.6579,-0.6634,-0.6622,-0.6622,-0.6626,-0.665,-0.6653,-0.6655,-0.6626,-0.6626,-0.6626,0,0,-0.6154,-0.6183,-0.6212,-0.624,-0.6283,-0.6309,-0.6316,-0.6363,-0.6382,-0.6424,-0.6445,-0.6476,-0.6537,-0.6567,-0.6591,-0.6616,-0.6632,-0.6627,-0.6629,-0.6653,-0.6655,-0.6657,-0.6667,-0.667,-0.663,-0.663,-0.663,0,-0.6147,-0.6196,-0.6225,-0.6258,-0.6282,-0.6307,-0.6338,-0.6364,-0.6417,-0.6434,-0.6435,-0.6513,-0.6543,-0.6593,-0.6599,-0.6617,-0.6627,-0.6622,-0.6652,-0.6654,-0.6656,-0.6667,-0.667,-0.6629,-0.6629,-0.6629,-0.6629,0,-0.6186,-0.622,-0.6238,-0.6288,-0.6314,-0.6346,-0.6381,-0.6404,-0.6421,-0.6447,-0.649,-0.6528,-0.6572,-0.6585,-0.6603,-0.6638,-0.6638,-0.6645,-0.6647,-0.6658,-0.6668,-0.6672,-0.6628,-0.6628,-0.6629,-0.6629,0,0,-0.6188,-0.6253,-0.6259,-0.6283,-0.6332,-0.6359,-0.6392,-0.6435,-0.6454,-0.649,-0.652,-0.6571,-0.6578,-0.6604,-0.6625,-0.6646,-0.6665,-0.665,-0.6652,-0.6653,-0.6708,-0.6703,-0.6707,-0.6675,-0.6676,-0.6676,-0.6704,0,-0.6209,-0.6269,-0.6296,-0.6344,-0.6376,-0.64,-0.6429,-0.6463,-0.6488,-0.652,-0.6548,-0.6584,-0.659,-0.6606,-0.6627,-0.6658,-0.6677,-0.6656,-0.6704,-0.6705,-0.6694,-0.6712,-0.6707,-0.6732,-0.6709,-0.6709,-0.671,0,-0.6242,-0.6277,-0.6328,-0.6374,-0.6389,-0.6414,-0.6456,-0.6485,-0.6525,-0.6542,-0.6571,-0.6591,-0.6628,-0.6626,-0.6679,-0.6664,-0.6685,-0.6703,-0.6705,-0.6712,-0.6709,-0.6721,-0.6741,-0.6745,-0.6716,-0.6716,-0.6715,0,-0.624,-0.63,-0.6338,-0.6357,-0.6411,-0.6429,-0.6453,-0.6491,-0.6516,-0.6552,-0.6568,-0.6609,-0.6632,-0.6663,-0.6694,-0.669,-0.6744,-0.6744,-0.676,-0.6759,-0.6772,-0.6771,-0.6796,-0.6783,-0.6783,-0.6782,-0.6782,0,-0.6262,-0.6292,-0.6338,-0.6361,-0.6396,-0.6428,-0.6462,-0.6488,-0.6522,-0.6552,-0.6576,-0.6603,-0.6642,-0.6675,-0.67,-0.674,-0.675,-0.6765,-0.6772,-0.6764,-0.6762,-0.6779,-0.6779,-0.6784,-0.6783,-0.6783,-0.6783,0,-0.6265,-0.6297,-0.634,-0.6388,-0.6401,-0.6425,-0.6466,-0.6491,-0.6517,-0.6554,-0.6565,-0.6606,-0.6646,-0.668,-0.6733,-0.6749,-0.6792,-0.6798,-0.6778,-0.6782,-0.6796,-0.6795,-0.6835,-0.6843,-0.6822,-0.6822,-0.6822,0,-0.6278,-0.6302,-0.6352,-0.6373,-0.6396,-0.6431,-0.6455,-0.6487,-0.6512,-0.6559,-0.6578,-0.662,-0.6655,-0.6718,-0.6753,-0.6794,-0.6803,-0.6814,-0.681,-0.6801,-0.6805,-0.6804,-0.6807,-0.6815,-0.6815,-0.6815,-0.6815,0,-0.6297,-0.6312,-0.6346,-0.6385,-0.6414,-0.6447,-0.648,-0.6497,-0.6535,-0.6562,-0.6603,-0.663,-0.6684,-0.6726,-0.677,-0.6796,-0.6813,-0.6816,-0.6822,-0.6816,-0.6803,-0.6812,-0.6781,-0.6816,-0.6816,-0.6816,-0.6816,-0.6816,-0.6307,-0.633,-0.6369,-0.6406,-0.6435,-0.6466,-0.6491,-0.652,-0.6554,-0.66,-0.6617,-0.6659,-0.6699,-0.6761,-0.6786,-0.6821,-0.6823,-0.6831,-0.6834,-0.6836,-0.6835,-0.6796,-0.6829,-0.6829,-0.6829,-0.6829,-0.6829,0,-0.6329,-0.6355,-0.6389,-0.6435,-0.6465,-0.6476,-0.6514,-0.6539,-0.6575,-0.6611,-0.6644,-0.6692,-0.6733,-0.6771,-0.6813,-0.6834,-0.6842,-0.6844,-0.6844,-0.685,-0.683,-0.6821,-0.6836,-0.6836,-0.6836,-0.6836,-0.6836,-0.6836,-0.6344,-0.6383,-0.6402,-0.6456,-0.6483,-0.6524,-0.6545,-0.6574,-0.6602,-0.6654,-0.6688,-0.6712,-0.6749,-0.6794,-0.6832,-0.6843,-0.6858,-0.6858,-0.687,-0.6852,-0.6851,-0.685,-0.6842,-0.686,-0.686,-0.6887,-0.6887,-0.6887]},{"header":{"parameterUnit":"m.s-1","parameterCategory":1,"la1":30.2991,"la2":30.254,"lo1":-89.0895,"lo2":-89.0444,"dy":0.0017,"dx":0.0017,"nx":28,"ny":28,"refTime":"2025-09-15T09:00:00:Z","depth":0,"parameterNumber":3,"parameterNumberName":"V-component_of_WINDS"},"data":[0,0,0,0,0,0,0,0,0,0,0,0,0,0,0,0,0,0,0,0,0,0,0,0,0,0,0,0,0,0,0,0,0,0,0,0,0,0,0,0,0,0,0,0,0,0,0,0,0,0,0,0,0,0,0,0,0,0,1.3919,1.3919,0,1.3893,1.3892,1.3892,1.3843,1.3842,1.3841,1.384,1.3812,1.3812,1.3812,0,0,0,0,0,0,0,0,0,0,0,0,0,1.3927,1.3927,1.3919,1.3919,1.3919,1.3893,1.3892,1.3892,1.3843,1.3842,1.3841,1.3839,1.3812,1.3812,1.3813,0,0,0,0,0,0,0,0,0,0,0,0,0,1.3914,1.3927,1.3919,1.3891,1.3888,1.3893,1.3892,1.3892,1.3843,1.3842,1.384,1.3839,1.3812,1.3812,1.3813,1.3842,0,0,1.3813,1.3813,0,0,0,0,0,0,0,0,1.3915,1.3914,1.3896,1.3893,1.389,1.3869,1.3885,1.3875,1.3843,1.386,1.384,1.3838,1.3832,1.3831,1.3829,1.3841,1.384,1.3813,1.3813,1.3813,1.3813,0,0,0,0,0,0,0,1.3916,1.3915,1.3909,1.3895,1.3892,1.3879,1.3876,1.3883,1.3855,1.3859,1.3855,1.3853,1.3831,1.3829,1.3828,1.3839,1.3813,1.3813,1.3814,1.3814,1.3872,1.3874,0,0,0,0,0,0,1.3921,1.3916,1.3909,1.3908,1.3899,1.388,1.3877,1.3877,1.3854,1.385,1.3854,1.385,1.3829,1.3828,1.3827,1.3858,1.3813,1.3814,1.3814,1.3871,1.3873,1.3874,0,0,0,0,0,0,1.3921,1.3921,1.3911,1.3911,1.3909,1.3882,1.3883,1.3878,1.3876,1.3851,1.3845,1.3857,1.3828,1.3826,1.3838,1.3857,1.3814,1.3814,1.3869,1.3871,1.3873,1.3923,0,0,0,0,0,0,1.3922,1.3921,1.3933,1.3912,1.3909,1.3923,1.3884,1.3878,1.3876,1.3872,1.3853,1.3848,1.3827,1.3838,1.3839,1.3856,1.3814,1.3867,1.387,1.3873,1.392,1.3927,1.3933,0,0,0,0,0,1.3922,1.3948,1.3934,1.3933,1.3922,1.3924,1.3923,1.3898,1.3878,1.3889,1.3873,1.3849,1.3855,1.384,1.384,1.3858,1.3866,1.3869,1.3872,1.3917,1.3925,1.3933,0,0,0,0,0,0,1.3972,1.3945,1.3928,1.3948,1.3939,1.3916,1.3929,1.3908,1.3904,1.39,1.3869,1.3865,1.3881,1.3871,1.3854,1.3885,1.3857,1.386,1.389,1.3898,1.3905,1.3906,1.3814,0,0,0,0,0,1.3986,1.399,1.3966,1.3985,1.3982,1.3956,1.3956,1.3938,1.3927,1.3923,1.3907,1.3897,1.3897,1.3897,1.3896,1.3918,1.3913,1.3931,1.3937,1.3943,1.3946,1.3955,1.3962,1.3885,1.3885,1.3885,0,0,1.4013,1.3999,1.4003,1.3995,1.3986,1.399,1.3953,1.396,1.3962,1.3924,1.3933,1.3922,1.3909,1.3926,1.3932,1.3918,1.3966,1.3947,1.3951,1.3951,1.3959,1.3967,1.3973,1.3887,1.3886,1.3886,0,0,1.4066,1.4056,1.407,1.4061,1.4048,1.403,1.4034,1.4014,1.4005,1.4014,1.3985,1.3987,1.3988,1.3979,1.3975,1.4023,1.4,1.4023,1.4057,1.4066,1.4072,1.4078,1.4093,1.4099,1.4026,1.4026,1.4026,0,1.4101,1.4107,1.408,1.4088,1.4085,1.405,1.4064,1.4057,1.4043,1.4041,1.4025,1.4024,1.4013,1.4026,1.4038,1.4036,1.4038,1.4025,1.4074,1.4079,1.4083,1.4098,1.4104,1.4029,1.4029,1.4029,1.4028,0,1.4151,1.4155,1.4169,1.4156,1.4154,1.4165,1.414,1.4141,1.4123,1.4107,1.4117,1.4102,1.4096,1.4098,1.408,1.4109,1.41,1.4079,1.405,1.4094,1.4107,1.4112,1.4033,1.4032,1.4031,1.4031,0,0,1.4234,1.4206,1.4211,1.4204,1.4186,1.4188,1.4198,1.4192,1.4193,1.4185,1.419,1.4191,1.4171,1.4167,1.4148,1.4156,1.4193,1.4134,1.4134,1.4144,1.4221,1.4236,1.4243,1.4178,1.4179,1.418,1.4222,0,1.4281,1.4295,1.427,1.429,1.4292,1.4259,1.4267,1.4256,1.4242,1.4241,1.4225,1.4226,1.4201,1.4197,1.4204,1.4187,1.4208,1.4184,1.4182,1.4183,1.4185,1.425,1.4266,1.4306,1.4227,1.4228,1.4229,0,1.4337,1.4331,1.4351,1.433,1.4331,1.4338,1.433,1.4331,1.4317,1.4306,1.43,1.4278,1.4284,1.4257,1.4265,1.4249,1.4247,1.4238,1.4239,1.4237,1.4207,1.4248,1.4318,1.4324,1.4237,1.4236,1.4235,0,1.4394,1.4391,1.4401,1.4397,1.4374,1.4379,1.437,1.4355,1.4353,1.4346,1.4344,1.4338,1.4334,1.4329,1.4305,1.4288,1.4315,1.4287,1.4305,1.4306,1.4311,1.4311,1.4381,1.4313,1.4313,1.4312,1.4312,0,1.4448,1.4461,1.4426,1.4433,1.4446,1.4418,1.4431,1.4418,1.4406,1.4408,1.438,1.4383,1.4352,1.4351,1.4333,1.4341,1.434,1.433,1.4324,1.4332,1.4333,1.4329,1.4325,1.4314,1.4314,1.4313,1.4313,0,1.4513,1.449,1.45,1.4477,1.4471,1.4482,1.4462,1.4466,1.445,1.4454,1.4453,1.4427,1.4425,1.4401,1.4393,1.4381,1.4395,1.4386,1.44,1.4396,1.4415,1.4413,1.4484,1.4491,1.442,1.442,1.4421,0,1.4548,1.4557,1.4535,1.4535,1.4527,1.4527,1.4524,1.4497,1.4495,1.448,1.4486,1.4482,1.4476,1.4474,1.4454,1.4448,1.4437,1.4462,1.4435,1.4442,1.4435,1.4434,1.4434,1.4467,1.4468,1.4469,1.4469,0,1.4613,1.4601,1.4598,1.4591,1.4589,1.4582,1.4573,1.4575,1.4544,1.4544,1.4541,1.4537,1.4529,1.4524,1.4514,1.4504,1.4481,1.4478,1.4481,1.4488,1.4495,1.449,1.4414,1.4476,1.4475,1.4475,1.4475,1.4474,1.4663,1.4668,1.4653,1.4651,1.4642,1.4634,1.4637,1.462,1.4618,1.4609,1.4593,1.4593,1.4578,1.4562,1.4554,1.4552,1.4539,1.4544,1.4546,1.4547,1.455,1.4497,1.455,1.455,1.455,1.455,1.4549,0,1.4724,1.4713,1.4711,1.47,1.4697,1.4677,1.4666,1.4665,1.4665,1.4653,1.4649,1.4645,1.464,1.462,1.4612,1.4615,1.4604,1.4613,1.4612,1.461,1.4563,1.456,1.4622,1.4622,1.4622,1.4622,1.4622,1.4622,1.4756,1.4764,1.4751,1.4754,1.4742,1.4741,1.4737,1.4729,1.4719,1.4716,1.4712,1.4699,1.4683,1.4674,1.4669,1.4663,1.466,1.4673,1.4664,1.462,1.4613,1.4607,1.4603,1.4673,1.4673,1.471,1.471,1.4711]}]]